Flag for U.S.A. Weather past 2 weeks in Orange, California, U.S.A.

Now
66 °F

Clear.


Feels Like: 66 °F
Forecast: 63 / 82 °F
Wind: 5 mph from Southeast

Location: John Wayne Airport-Orange County Airport

Current Time: Sep 4, 2015 at 11:30:07 PM

Latest Report: Sep 4, 2015 at 10:53 PM


Visibility: 10 mi

Pressure: 29.86 "Hg

Humidity: 78%

Dew point: 59 °F

Location of OrangeLocation

Historic Weather in Orange — Graph

°F

Orange temperature yesterday

Maximum temperature yesterday: 75 °F (at 12:53 PM)
Minimum temperature yesterday: 66 °F (at 1:53 AM)
Average temperature yesterday: 70 °F

Past Weeks' High & Low Weather Summary

 TemperatureHumidityPressure
High91 °F (Aug 28, 11:53 AM)93% (Aug 26, 3:53 AM)29.98 "Hg (Aug 26, 3:53 AM)
Low66 °F (Sep 3, 1:53 AM)32% (Aug 28, 11:53 AM)29.80 "Hg (Aug 28, 6:53 PM)
Average74 °F70%29.89 "Hg
* Reported Aug 20 9:53 PM — Sep 4 9:53 PM, Orange, Weather by CustomWeather, © 2015

Note: Actual official high and low records may vary slightly from our data, if they occured in-between our weather recording intervals... More about our weather records

Advertising

Orange weather history for previous 24 hours

 ConditionsComfort  
Time TempWeatherWind HumidityBarometerVisibility
9:53 PM
Fri, Sep 4
68 °FClear.6 mph73%29.86 "Hg10 mi
8:53 PM68 °FClear.3 mph73%29.85 "Hg10 mi
7:53 PM69 °FSunny.7 mph68%29.83 "Hg10 mi
6:53 PM70 °FSunny.8 mph64%29.83 "Hg10 mi
5:53 PM73 °FSunny.12 mph57%29.83 "Hg10 mi
4:53 PM74 °FSunny.8 mph56%29.83 "Hg10 mi
3:53 PM75 °FSunny.10 mph52%29.83 "Hg10 mi
2:53 PM75 °FSunny.10 mph54%29.85 "Hg10 mi
1:53 PM76 °FPassing clouds.12 mph50%29.86 "Hg10 mi
12:53 PM75 °FPassing clouds.10 mph54%29.87 "Hg10 mi
11:53 AM75 °FScattered clouds.7 mph52%29.88 "Hg10 mi
10:53 AM73 °FPartly sunny.5 mph53%29.89 "Hg10 mi
9:53 AM70 °FPartly sunny.5 mph59%29.90 "Hg10 mi
8:53 AM70 °FOvercast.5 mph59%29.89 "Hg10 mi
7:53 AM69 °FOvercast.5 mph66%29.88 "Hg10 mi
6:53 AM68 °FOvercast.5 mph68%29.87 "Hg10 mi
5:53 AM68 °FOvercast.5 mph68%29.85 "Hg10 mi
4:53 AM68 °FOvercast.5 mph68%29.85 "Hg10 mi
3:53 AM68 °FOvercast.6 mph68%29.85 "Hg10 mi
2:53 AM68 °FMostly cloudy.7 mph68%29.85 "Hg10 mi
1:53 AM68 °FOvercast.6 mph70%29.85 "Hg10 mi
12:53 AM68 °FMostly cloudy.7 mph73%29.86 "Hg10 mi
11:53 PM
Thu, Sep 3
67 °FPassing clouds.5 mph73%29.86 "Hg10 mi
Weather by CustomWeather, © 2015

See weather overviewHow to use our weather pages